This demonstration page uses our WeatherBlox Daily Observations layout. Learn more.

Left ArrowRight Arrow

Hourly Observations for December 24, 2020

Temp ( °F °C ) Dew Point ( °F °C ) Humidity (%) Winds ( mph kmh ) Pressure ( in mb ) Visibility ( mi km ) Precip ( " mm )
12:56 am 00:56 Clear 17 -8.3 9 -12.8 70 70 W 13 20 30.16 1021 10 16 0.00 0.00
1:56 am 01:56 Clear 17 -8.3 8 -13.3 68 68 WNW 18 30 30.16 1021 10 16 0.00 0.00
2:56 am 02:56 Clear 17 -8.3 7 -13.9 64 64 WNW 16 26 30.16 1021 10 16 0.00 0.00
3:56 am 03:56 Clear 17 -8.3 7 -13.9 64 64 WNW 15 24 30.14 1021 10 16 0.00 0.00
4:56 am 04:56 Clear 18 -7.8 7 -13.9 62 62 WNW 13 20 30.12 1020 10 16 0.00 0.00
5:56 am 05:56 Mostly Cloudy 18 -7.8 8 -13.3 65 65 W 9 15 30.12 1020 10 16 0.00 0.00
6:56 am 06:56 Cloudy 16 -8.9 9 -12.8 74 74 W 10 17 30.14 1021 10 16 0.00 0.00
7:56 am 07:56 Cloudy 17 -8.3 10 -12.2 74 74 NW 8 13 30.15 1021 10 16 0.00 0.00
8:56 am 08:56 Cloudy 18 -7.8 11 -11.7 74 74 NW 7 11 30.18 1022 10 16 0.00 0.00
9:56 am 09:56 Cloudy 22 -5.6 14 -10 71 71 NW 8 13 30.19 1022 10 16 0.00 0.00
10:56 am 10:56 Cloudy 26 -3.3 15 -9.4 63 63 N 13 20 30.20 1023 10 16 0.00 0.00
11:56 am 11:56 Cloudy 24 -4.4 15 -9.4 68 68 NE 7 11 30.21 1023 10 16 0.00 0.00
12:56 pm 12:56 Mostly Cloudy 27 -2.8 17 -8.3 66 66 NNE 3 6 30.19 1023 10 16 0.00 0.00
1:56 pm 13:56 Partly Cloudy 28 -2.2 17 -8.3 63 63 NNE 3 6 30.19 1023 10 16 0.00 0.00
2:56 pm 14:56 Cloudy 29 -1.7 19 -7.2 66 66 NE 3 6 30.18 1022 10 16 0.00 0.00
3:56 pm 15:56 Cloudy 31 -0.6 20 -6.7 64 64 Calm 30.19 1022 10 16 0.00 0.00
4:56 pm 16:56 Partly Cloudy 27 -2.8 17 -8.3 66 66 ENE 5 7 30.18 1022 10 16 0.00 0.00
5:56 pm 17:56 Cloudy 25 -3.9 17 -8.3 72 72 Calm 30.19 1022 10 16 0.00 0.00
6:56 pm 18:56 Cloudy 25 -3.9 19 -7.2 78 78 Calm 30.20 1023 10 16 0.00 0.00
7:56 pm 19:56 Cloudy 26 -3.3 19 -7.2 75 75 NNW 5 7 30.20 1023 10 16 0.00 0.00
8:56 pm 20:56 Cloudy 27 -2.8 21 -6.1 78 78 N 5 7 30.20 1023 10 16 0.00 0.00
9:56 pm 21:56 Cloudy 28 -2.2 22 -5.6 78 78 Calm 30.22 1023 10 16 0.00 0.00
10:56 pm 22:56 Mostly Cloudy 25 -3.9 21 -6.1 85 85 Calm 30.22 1023 10 16 0.00 0.00
11:56 pm 23:56 Mostly Cloudy 22 -5.6 18 -7.8 85 85 Calm 30.22 1024 10 16 0.00 0.00

Powered by AerisWeather